Wind_Speed
16 17 18 17 16 15 13 12 13 15 18 20 19 20 21 20 22 25 35 34 25 23 18 13 14 13 14 12 15 7 1 6 10 8 8 4 8 7 16 14 13 22 9 8 34
18 18 17 15 16 16 17 16 14 14 14 18 22 22 21 25 26 37 40 31 26 21 25 27 22 14 9 9 8 5 4 11 5 8 7 7 9 16 8 9 8 16 13 14 38
21 20 19 18 18 18 17 18 18 16 17 16 16 21 21 23 28 48 32 32 29 29 28 24 21 18 12 9 9 6 13 3 5 12 14 6 7 12 7 5 17 31 24 29 41
23 23 23 22 20 21 21 21 20 21 18 18 20 18 18 18 10 3 11 18 24 33 28 27 23 12 8 9 15 5 11 12 4 6 4 4 4 7 19 19 26 30 35 36 44
27 28 28 28 27 23 22 23 24 23 22 21 18 21 18 17 36 19 9 7 14 28 33 33 27 22 9 7 13 8 5 12 22 24 19 11 11 12 15 32 14 25 35 39 42
29 30 32 33 34 34 31 25 25 26 26 23 20 19 24 15 42 34 35 38 23 25 34 34 20 25 15 10 9 7 21 20 17 17 12 7 6 8 17 23 18 28 37 40 41
28 30 31 32 34 35 36 34 30 28 27 28 24 18 30 48 22 13 20 33 31 31 32 38 38 16 12 2 15 10 7 6 7 7 8 10 9 13 37 20 31 33 39 41 43
30 31 31 31 32 35 37 39 35 32 28 28 27 21 25 39 37 38 28 23 22 25 31 29 31 25 7 3 3 5 3 7 8 11 7 12 21 7 27 29 31 38 41 45 47
34 34 35 37 40 38 42 38 33 36 30 26 18 22 15 13 34 44 40 39 28 27 27 16 25 19 8 4 3 5 6 8 5 9 5 10 12 7 17 25 30 34 39 44 46
34 35 37 39 44 43 41 35 23 21 14 9 11 9 24 18 30 30 42 47 33 27 20 19 12 6 6 8 19 13 8 7 9 8 8 14 20 7 9 14 25 30 37 40 44
37 39 39 39 44 43 34 39 17 7 11 9 16 14 9 14 12 22 28 34 31 27 12 12 7 20 28 30 24 10 9 12 5 9 7 16 22 17 16 10 10 20 29 37 44
40 41 42 39 42 38 33 33 8 19 22 27 37 44 46 37 19 28 26 28 21 18 10 5 26 22 14 15 18 11 9 12 5 5 8 7 19 14 8 8 21 26 27 37 42
40 40 41 40 40 39 39 11 16 28 9 25 36 36 31 37 39 18 39 32 26 22 27 25 16 18 19 7 17 20 21 17 8 2 3 1 9 8 8 18 24 30 39 41 46
40 40 41 41 25 38 29 22 16 18 6 11 8 12 27 22 16 51 31 25 8 24 20 17 21 22 19 21 17 23 16 16 11 4 8 7 13 9 6 11 13 26 29 39 44
40 41 39 37 33 31 23 24 23 2 4 7 3 16 36 9 10 26 46 36 12 10 10 14 13 25 10 21 22 16 10 16 10 9 1 3 3 8 6 13 12 17 32 37 40
42 41 40 38 37 19 26 24 15 2 8 7 9 17 15 12 20 16 29 46 18 9 9 17 12 19 21 16 20 10 5 6 4 4 7 12 10 9 9 8 7 11 28 39 39
39 40 39 38 23 18 20 19 4 4 7 7 16 19 17 12 10 13 14 22 17 12 16 13 7 4 4 7 5 9 10 1 1 2 11 8 10 24 9 10 18 20 23 30 29
39 40 39 15 5 18 16 5 3 6 6 18 11 17 9 16 9 12 18 15 25 3 9 16 10 16 6 11 9 20 15 7 10 6 5 5 10 7 14 24 32 23 22 19 23
40 39 29 10 10 21 14 4 6 7 9 12 17 4 5 15 9 7 3 9 8 23 14 8 17 5 9 6 17 6 14 22 6 3 3 6 6 9 9 9 8 10 14 16 22
42 29 16 12 20 24 4 3 4 6 9 10 6 7 10 15 14 12 4 3 12 19 22 7 4 3 11 5 1 14 24 4 2 7 13 4 5 5 5 11 8 8 9 19 25
28 13 11 21 21 3 2 4 6 13 13 5 7 8 5 6 8 8 6 9 15 15 17 13 4 1 3 9 18 6 9 4 6 5 7 2 6 8 12 15 12 12 12 23 27
17 5 16 19 4 1 1 4 7 7 10 3 4 6 3 11 5 8 5 7 14 13 13 8 9 7 8 3 4 15 8 15 8 11 4 3 9 1 5 6 8 10 22 25 28
21 9 11 15 2 3 4 3 4 5 4 3 3 2 4 5 5 9 6 7 4 11 6 9 7 8 3 2 4 5 10 12 4 4 9 6 5 1 5 7 4 8 20 25 27
9 4 10 8 5 0 4 6 4 8 5 5 5 3 4 9 4 10 14 9 15 11 19 14 8 13 11 21 8 7 12 8 14 6 10 6 4 5 7 6 4 8 20 25 27
7 4 8 4 10 5 5 5 8 4 4 3 4 3 4 6 12 5 18 21 16 6 6 10 6 11 3 6 6 3 9 17 12 23 15 17 7 8 6 8 3 6 17 24 27
7 4 10 19 13 7 11 2 6 6 3 7 2 13 10 5 12 19 16 18 10 1 9 4 6 2 9 2 6 5 6 7 15 21 5 6 4 8 3 7 7 15 23 24 32
9 12 8 11 4 6 3 3 5 5 8 9 9 6 14 16 19 31 30 32 18 19 15 7 7 4 6 7 6 3 11 7 4 4 12 13 17 7 5 6 8 18 26 26 31
Wind_Direction
342 338 336 335 333 330 325 316 304 292 285 281 274 275 273 264 261 255 251 240 239 238 240 230 226 219 215 223 217 207 132 233 232 168 242 220 198 202 200 159 168 189 214 215 177
346 336 329 326 321 319 316 313 307 298 291 288 281 275 277 275 268 257 249 253 249 236 227 226 220 210 201 224 211 175 187 229 182 199 216 203 186 183 170 159 184 188 200 191 179
340 334 325 317 308 304 301 300 301 298 295 289 283 276 271 279 283 264 255 250 245 233 229 225 225 220 212 208 208 202 237 204 239 238 257 225 205 196 166 227 194 196 182 179 181
344 336 328 321 309 302 298 294 291 290 286 285 290 277 259 260 245 236 215 228 220 215 219 208 203 187 200 199 202 234 248 238 279 257 232 216 213 204 202 212 218 218 213 188 186
346 342 334 328 321 308 296 287 281 278 281 284 280 278 257 237 240 244 215 185 189 196 205 202 194 193 184 197 206 230 245 250 250 254 245 233 219 218 237 232 230 212 198 197 198
344 340 337 334 329 324 313 298 285 276 272 269 270 266 236 243 258 261 250 255 249 202 204 207 213 212 209 200 178 208 225 246 251 246 231 211 246 222 243 238 224 205 203 205 210
345 340 333 329 325 320 313 303 290 276 270 262 259 250 240 237 246 243 250 243 243 233 219 214 218 207 220 280 239 235 260 272 219 216 217 206 276 225 247 237 218 210 209 211 213
344 342 338 332 326 320 314 302 292 283 273 262 254 231 244 256 257 239 237 228 227 234 224 226 216 211 206 256 307 167 171 232 215 176 217 161 258 234 250 221 213 213 212 211 212
338 337 336 336 336 332 322 306 289 290 282 258 238 207 256 247 237 248 230 221 215 213 215 226 211 211 180 150 352 248 217 219 285 194 150 190 255 247 224 211 219 211 210 212 215
338 337 337 336 336 341 333 329 316 295 276 225 213 200 238 221 236 236 224 220 206 206 199 198 196 179 161 168 218 213 205 209 192 211 183 207 242 246 206 204 218 218 217 215 216
339 338 336 335 338 342 337 347 2 334 316 257 276 245 302 291 241 225 212 193 191 179 189 177 185 210 200 201 213 219 220 213 232 186 154 214 238 236 239 250 253 232 223 223 226
340 338 337 337 341 340 333 331 310 325 295 284 270 271 268 268 292 226 202 171 184 194 137 167 224 211 227 229 226 213 205 229 296 190 173 240 250 241 209 227 231 237 237 231 231
335 333 335 336 337 339 333 0 339 340 278 283 259 253 255 247 249 278 190 189 190 189 191 199 219 196 208 201 221 228 217 220 200 149 207 357 263 241 227 230 241 241 243 242 234
332 329 331 335 336 336 338 340 339 338 285 285 214 251 240 236 253 230 222 187 187 206 193 222 224 191 201 216 195 229 217 233 222 141 241 168 271 239 219 224 229 244 230 230 231
330 329 330 331 320 323 333 329 334 265 304 268 62 38 1 172 332 219 213 209 202 163 158 221 182 210 198 211 196 230 182 203 197 211 15 185 291 275 224 238 226 234 238 236 228
327 327 329 331 327 342 346 334 325 210 250 297 40 354 347 331 335 322 201 207 213 175 213 218 191 188 212 210 201 178 87 61 73 128 240 225 198 202 219 220 239 246 236 238 226
329 329 327 328 313 353 343 335 10 223 317 6 336 334 327 351 335 6 316 200 199 182 208 215 203 199 171 125 133 165 134 219 285 246 235 205 209 246 224 223 233 243 246 246 235
334 330 337 349 350 355 338 350 239 300 338 332 325 314 338 360 360 358 326 241 220 233 204 216 216 194 182 188 168 188 181 162 201 207 217 136 233 245 218 227 238 241 257 257 226
343 344 354 13 337 338 338 28 334 355 312 321 313 343 357 356 343 327 207 289 248 218 209 188 232 212 179 164 162 200 199 209 97 122 96 214 278 294 241 252 231 231 211 219 204
348 347 25 342 337 327 71 206 284 315 321 317 310 326 26 346 346 349 323 337 345 1 335 210 239 226 202 114 58 172 197 163 174 194 240 253 261 234 252 239 221 221 206 199 197
355 339 341 339 323 10 128 244 275 312 333 318 328 316 28 356 324 300 306 340 10 324 339 270 253 324 136 204 190 175 176 164 164 161 217 195 254 214 207 223 215 217 194 190 188
342 324 341 329 13 66 218 208 294 296 329 314 288 339 346 325 277 279 262 215 352 340 315 288 239 212 202 257 300 225 202 190 194 218 244 194 244 248 271 270 252 195 190 188 186
330 289 357 336 335 306 301 271 255 300 298 309 291 103 273 314 321 310 318 336 325 337 309 347 235 223 158 25 354 189 197 206 119 74 196 179 256 180 296 296 237 178 178 181 179
335 317 324 323 328 219 302 281 280 289 274 254 252 281 1 305 270 284 288 305 307 286 298 317 230 205 202 210 146 180 188 187 201 211 214 219 214 262 255 258 235 177 182 181 181
350 284 303 292 322 304 286 267 297 288 268 286 311 261 262 289 305 240 313 308 301 273 331 3 279 190 189 141 125 142 176 195 198 221 215 235 211 253 212 232 248 187 178 176 181
352 334 318 289 298 267 284 239 267 283 226 297 186 305 299 238 275 289 306 299 284 265 353 350 290 189 186 286 109 129 138 157 214 231 220 255 271 240 302 175 175 197 188 187 190
315 337 314 294 283 298 277 265 280 334 294 264 284 296 303 296 298 289 276 273 262 275 294 304 300 338 200 151 101 264 197 166 161 192 213 228 240 257 216 204 202 204 201 202 201
Height
1511 1508 1505 1502 1499 1497 1494 1490 1490 1488 1487 1486 1484 1484 1483 1479 1477 1476 1468 1470 1475 1478 1479 1480 1481 1484 1486 1486 1487 1486 1491 1491 1480 1482 1472 1470 1472 1471 1473 1474 1476 1477 1477 1477 1484
1508 1504 1501 1498 1495 1493 1490 1488 1486 1483 1481 1481 1480 1479 1478 1476 1470 1460 1459 1466 1469 1472 1472 1474 1476 1480 1482 1481 1482 1481 1487 1472 1464 1468 1471 1468 1467 1467 1470 1470 1473 1472 1473 1476 1480
1504 1501 1498 1495 1492 1488 1485 1483 1482 1480 1477 1474 1473 1473 1473 1472 1468 1442 1453 1455 1460 1464 1468 1469 1474 1475 1476 1476 1474 1472 1466 1462 1460 1462 1463 1464 1464 1465 1465 1469 1462 1465 1469 1472 1475
1501 1497 1493 1489 1486 1484 1481 1477 1475 1473 1472 1471 1468 1466 1466 1468 1467 1444 1445 1445 1447 1454 1463 1464 1468 1471 1471 1469 1467 1472 1459 1460 1455 1458 1460 1460 1460 1460 1459 1455 1459 1461 1461 1465 1468
1498 1493 1488 1483 1480 1476 1473 1470 1467 1465 1464 1464 1463 1461 1460 1459 1439 1445 1445 1444 1442 1444 1451 1457 1459 1460 1463 1462 1463 1462 1456 1456 1457 1458 1458 1458 1456 1456 1453 1456 1457 1457 1459 1459 1461
1496 1490 1485 1480 1475 1470 1467 1463 1460 1456 1455 1454 1454 1455 1450 1445 1432 1438 1440 1441 1441 1441 1442 1449 1451 1452 1453 1453 1456 1452 1452 1452 1453 1453 1455 1455 1453 1456 1445 1451 1452 1451 1451 1454 1455
1494 1489 1482 1476 1470 1464 1458 1453 1450 1448 1446 1444 1445 1445 1438 1414 1425 1428 1431 1432 1435 1437 1437 1437 1444 1450 1448 1448 1445 1446 1452 1449 1446 1448 1450 1452 1451 1445 1436 1444 1444 1444 1444 1446 1449
1492 1487 1480 1473 1466 1459 1452 1444 1438 1436 1435 1434 1435 1435 1415 1412 1418 1421 1424 1428 1429 1432 1435 1438 1439 1444 1446 1445 1444 1446 1450 1455 1436 1442 1443 1447 1436 1430 1429 1434 1435 1436 1439 1441 1443
1491 1484 1477 1470 1462 1454 1443 1435 1430 1426 1423 1424 1425 1425 1406 1402 1400 1405 1409 1414 1424 1425 1430 1436 1437 1436 1441 1448 1455 1449 1451 1451 1439 1432 1436 1440 1431 1425 1425 1426 1428 1430 1433 1435 1438
1487 1481 1474 1467 1458 1449 1438 1429 1420 1416 1413 1419 1422 1425 1396 1388 1389 1389 1399 1407 1414 1423 1428 1428 1432 1432 1434 1442 1438 1439 1446 1439 1436 1428 1432 1435 1424 1424 1423 1422 1421 1423 1425 1428 1430
1485 1478 1471 1464 1456 1447 1437 1429 1425 1420 1415 1413 1410 1393 1385 1388 1385 1384 1389 1401 1407 1413 1416 1417 1425 1413 1402 1400 1405 1417 1427 1427 1421 1421 1427 1426 1414 1414 1415 1417 1416 1417 1419 1421 1419
1482 1475 1467 1462 1454 1446 1441 1437 1437 1436 1408 1405 1397 1390 1390 1392 1388 1380 1383 1391 1398 1397 1409 1419 1399 1398 1411 1415 1415 1418 1422 1422 1419 1415 1420 1419 1411 1406 1410 1408 1406 1408 1410 1411 1414
1481 1473 1466 1459 1453 1446 1440 1436 1434 1429 1417 1388 1385 1382 1378 1381 1378 1384 1378 1375 1375 1389 1389 1387 1375 1399 1403 1411 1417 1412 1412 1413 1415 1414 1418 1418 1415 1408 1401 1399 1397 1397 1397 1400 1400
1477 1470 1463 1456 1451 1444 1438 1435 1432 1429 1415 1381 1371 1365 1364 1366 1366 1370 1377 1376 1376 1375 1385 1387 1383 1385 1393 1399 1406 1409 1405 1410 1418 1423 1428 1416 1405 1392 1390 1391 1388 1384 1385 1384 1388
1472 1465 1459 1453 1447 1442 1439 1433 1429 1426 1445 1369 1366 1370 1364 1365 1359 1352 1356 1368 1368 1371 1381 1370 1375 1382 1387 1378 1394 1393 1400 1407 1416 1422 1417 1416 1426 1395 1385 1380 1379 1375 1371 1371 1376
1467 1461 1455 1448 1443 1439 1436 1431 1427 1428 1430 1378 1375 1377 1373 1373 1366 1356 1352 1356 1355 1365 1368 1363 1364 1372 1364 1371 1380 1385 1396 1408 1417 1422 1428 1403 1413 1381 1379 1373 1371 1364 1361 1361 1365
1462 1456 1449 1446 1441 1437 1434 1431 1436 1428 1398 1393 1388 1382 1372 1366 1363 1372 1366 1351 1352 1363 1365 1359 1361 1360 1361 1374 1379 1384 1397 1426 1429 1431 1401 1396 1411 1358 1366 1360 1357 1353 1351 1353 1356
1457 1452 1443 1441 1439 1437 1435 1433 1430 1414 1412 1407 1395 1385 1373 1371 1364 1367 1371 1352 1343 1346 1356 1362 1364 1351 1351 1354 1368 1372 1377 1404 1406 1413 1403 1403 1389 1364 1351 1347 1345 1346 1346 1347 1348
1454 1446 1441 1442 1440 1438 1436 1453 1437 1430 1425 1416 1398 1392 1386 1386 1378 1373 1369 1364 1346 1343 1348 1360 1351 1343 1343 1346 1350 1372 1375 1355 1388 1395 1415 1392 1375 1357 1346 1346 1342 1340 1342 1343 1344
1455 1446 1441 1441 1439 1437 1439 1439 1433 1426 1421 1415 1408 1404 1400 1396 1385 1381 1367 1362 1364 1360 1362 1337 1346 1341 1335 1341 1346 1344 1346 1373 1386 1389 1379 1380 1375 1361 1344 1339 1337 1339 1337 1339 1343
1454 1449 1442 1439 1437 1436 1446 1441 1431 1424 1422 1419 1416 1410 1411 1410 1402 1386 1370 1368 1373 1369 1359 1348 1337 1344 1341 1339 1334 1347 1349 1355 1357 1375 1370 1383 1365 1343 1335 1331 1332 1330 1334 1337 1340
1457 1454 1444 1440 1439 1439 1440 1436 1430 1423 1421 1418 1414 1412 1411 1410 1406 1391 1384 1380 1378 1373 1366 1347 1334 1338 1339 1334 1332 1330 1334 1336 1349 1364 1373 1378 1351 1334 1337 1336 1334 1332 1333 1337 1341
1459 1451 1444 1442 1448 1440 1434 1432 1429 1424 1420 1417 1415 1413 1410 1408 1413 1393 1377 1370 1376 1379 1369 1363 1332 1334 1338 1336 1336 1334 1335 1332 1345 1355 1361 1370 1351 1334 1337 1335 1331 1332 1333 1337 1341
1462 1457 1446 1443 1443 1442 1439 1431 1428 1421 1418 1416 1414 1411 1413 1409 1404 1397 1388 1377 1372 1370 1364 1358 1333 1312 1315 1306 1322 1333 1330 1333 1334 1353 1344 1353 1340 1332 1334 1334 1332 1332 1335 1338 1341
1466 1460 1455 1447 1438 1440 1437 1432 1427 1425 1417 1414 1412 1411 1414 1411 1399 1392 1383 1372 1367 1363 1359 1358 1328 1310 1316 1314 1317 1318 1324 1326 1332 1326 1337 1330 1341 1330 1330 1333 1334 1335 1338 1340 1342
1465 1465 1456 1446 1440 1437 1432 1427 1425 1422 1420 1413 1414 1406 1403 1408 1398 1386 1386 1373 1371 1357 1363 1358 1340 1314 1319 1314 1315 1321 1325 1326 1326 1323 1333 1335 1337 1326 1325 1325 1330 1332 1336 1337 1338
1460 1459 1456 1444 1438 1436 1429 1426 1422 1420 1414 1411 1409 1407 1399 1393 1386 1377 1372 1357 1362 1360 1362 1355 1341 1318 1310 1321 1321 1324 1317 1321 1324 1324 1325 1332 1319 1323 1324 1324 1324 1326 1330 1333 1335